TIME,DELAY(SENSOR),PRES,OXYGEN,RAWTEMP,T(OPTODE),TCPHASE,FLUOR,BETA(BETA700),BETA(BETA412),BETA(BETA440),CDOM,C(CSC),ED(ED411.90),ED(ED443.80),ED(ED489.40),ED(ED554.70),LU(LU412.20),LU(LU443.80),LU(LU489.40),LU(LU555.00),COMP,TILTX,TILTY,CHECK
1346537023,5803,881.3499755859375000,169.4734039306640600,377.6344909667969000,11.2834300994873050,37.9048194885253900,52,101,97,79,78,13586,2146957174,2147516480,2147279259,2147494637,2147087990,2146937362,2147694537,2147119926,2451,-2,8,42176
1346540619,5806,997.9299926757812000,180.0361022949218800,468.7756958007812500,8.4950733184814450,38.6587715148925800,52,103,98,79,79,13574,2146961389,2147516982,2147288000,2147514459,2147088768,2146924489,2147717888,2147121472,1018,-2,8,20564
1346544219,5809,1022.3400268554688000,187.5713958740234400,483.0755920410156000,8.0536231994628900,38.3982887268066400,53,100,99,79,80,13572,2146960960,2147514971,2147289472,2147515922,2147089801,2146923757,2147714541,2147119268,66,-2,8,10507
1346547819,5805,1023.9000244140625000,189.1956024169922000,483.9653015136719000,8.0261144638061520,38.3061408996582000,53,102,99,78,79,13573,2146963794,2147520091,2147289106,2147514020,2147089417,2146919661,2147713481,2147121645,762,-1,8,60964
1346551419,5806,1022.4500122070312000,190.7568969726562500,487.1983947753906000,7.9261131286621090,38.2610015869140600,52,102,99,79,80,13573,2146961298,2147515337,2147292644,2147516205,2147089755,2146924909,2147714752,2147117586,499,-1,8,30170
1346555019,5808,1030.7800292968750000,190.8526000976562500,488.3971862792969000,7.8890151977539060,38.2749595642089840,51,99,101,79,79,13569,2146959661,2147519113,2147293942,2147518939,2147089645,2146926134,2147716269,2147119826,140,-2,8,37373
1346558619,5805,1032.2600097656250000,191.9055938720703000,489.9042053222656000,7.8423690795898440,38.2336387634277340,52,100,99,79,80,13571,2146962989,2147517741,2147289490,2147518153,2147089462,2146922688,2147718802,2147120448,3118,-2,8,5922
1346562219,5807,1032.3900146484375000,192.3818054199218800,491.5799865722656000,7.7904829978942870,38.2317390441894500,53,102,98,79,80,13567,2146960402,2147517147,2147291245,2147520283,2147090962,2146924736,2147714377,2147119259,1148,-2,8,32203
1346565819,5803,1030.2299804687500000,191.1593017578125000,488.0562133789062500,7.8995699882507320,38.2496604919433600,52,102,105,79,79,13565,2146964086,2147517796,2147289115,2147518637,2147092608,2146928411,2147716224,2147119332,3509,-2,8,12498
1346569419,5806,1026.4899902343750000,191.2019042968750000,487.8653869628906000,7.9054760932922360,38.2434692382812500,52,101,99,79,79,13567,2146961700,2147517504,2147290715,2147517979,2147090724,2146926409,2147719049,2147118838,357,-1,8,21157
1346573019,5808,1026.0600585937500000,191.6461944580078000,489.7000122070312500,7.8486938476562500,38.2472305297851560,53,101,100,80,80,13567,2146958710,2147519113,2147291501,2147517796,2147091675,2146925421,2147713472,2147118875,287,-1,8,29679
1346576619,5808,1027.3599853515625000,191.9705047607422000,489.9433898925781000,7.8411569595336910,38.2296218872070300,52,101,101,78,79,13564,2146958784,2147518930,2147292534,2147516708,2147090313,2146926710,2147720064,2147120804,411,-2,8,43267
1346580219,5805,1030.8599853515625000,192.2120056152343800,488.5521850585937500,7.8842191696166990,38.1907081604003900,53,101,100,79,80,13562,2146960996,2147517284,2147291227,2147517504,2147092196,2146926016,2147718747,2147120027,3289,-1,8,64928
1346583819,5806,1028.2299804687500000,191.9949035644531200,490.9285888671875000,7.8106532096862790,38.2455902099609400,52,102,98,79,79,13563,2146962889,2147513700,2147294985,2147520969,2147089755,2146927259,2147718107,2147118528,3393,-2,8,41620
1346587419,5808,1027.8900146484375000,193.6799926757812500,491.0873107910156000,7.8057379722595215,38.1402816772460940,52,102,99,79,80,13562,2146957540,2147517997,2147289316,2147518006,2147087524,2146924754,2147710838,2147118921,151,-1,8,28890
1346591019,5806,1029.2900390625000000,193.5700988769531200,490.9372863769531000,7.8103852272033690,38.1452598571777340,53,105,98,79,79,13563,2146959579,2147513462,2147293778,2147522185,2147092297,2146926491,2147721636,2147121179,669,-2,8,1038
1346594619,5807,1031.5500488281250000,192.9299926757812500,490.4030151367187500,7.8269262313842770,38.1766891479492200,52,104,99,79,79,13565,2146956672,2147519808,2147291968,2147517366,2147090742,2146927241,2147719040,2147114880,517,-2,8,198
1346598219,5803,1031.4899902343750000,193.0093994140625000,490.1560974121094000,7.8345718383789060,38.1671104431152340,52,104,98,79,79,13562,2146960100,2147519506,2147291684,2147518162,2147091812,2146926546,2147716086,2147116352,722,-1,7,29405
1346601819,5807,1032.1400146484375000,193.9098968505859400,491.4551086425781000,7.7943511009216310,38.1324806213378900,53,103,101,80,79,13556,2146961206,2147518857,2147290121,2147517915,2147092662,2146926034,2147721883,2147118738,245,-2,8,4078
1346605419,5806,1016.0900268554688000,186.6437988281250000,479.6859130859375000,8.1583776473999020,38.4002799987793000,52,106,99,78,80,13550,2146957577,2147517092,2147293440,2147516233,2147091446,2146929280,2147717302,2147119844,3305,-2,8,46780
1346609019,5806,1010.5800170898438000,185.6799926757812500,478.5133056640625000,8.1945991516113280,38.4448509216308600,52,103,99,79,79,13558,2146958866,2147521801,2147291072,2147514880,2147092224,2146931830,2147718409,2147119936,3496,-2,8,19971
1346612619,5807,1009.3099975585938000,185.0155944824218800,478.7184143066406000,8.1882658004760740,38.4916381835937500,52,127,99,78,78,13552,2146957065,2147515894,2147290733,2147514048,2147092150,2146926162,2147714084,2147117769,22,-2,7,51904
1346616219,5805,1008.0000000000000000,185.9927978515625000,480.0994873046875000,8.1455993652343750,38.4513206481933600,53,103,99,78,78,13554,2146960420,2147516800,2147290029,2147516233,2147091858,2146927149,2147720274,2147119341,3539,-2,8,16410
1346619819,5809,1011.7600097656250000,186.2451019287109400,479.6809082031250000,8.1585321426391600,38.4263191223144500,52,101,99,78,79,13554,2146959314,2147516315,2147290788,2147517083,2147092836,2146926966,2147714779,2147117641,18,-2,8,8128
1346623419,5807,1013.3599853515625000,185.6880035400390600,478.1460876464844000,8.2059421539306640,38.4383316040039060,52,102,98,80,80,13551,2146959707,2147513197,2147290834,2147513984,2147090651,2146927360,2147714203,2147118400,248,-2,8,61916
1346627019,5807,1013.6799926757812000,185.5034027099609400,478.5808105468750000,8.1925172805786130,38.4575691223144500,53,107,99,78,79,13554,2146954624,2147516873,2147291081,2147515328,2147093266,2146928210,2147714843,2147117860,188,-2,8,19153
1346630619,5809,1012.7199707031250000,185.5886993408203000,479.9661865234375000,8.1497182846069340,38.4748611450195300,53,101,99,78,79,13555,2146956827,2147514249,2147290706,2147515446,2147092397,2146923785,2147717549,2147119954,157,-2,8,1976
1346634219,5805,1013.0399780273438000,184.0558013916015600,480.1541137695312500,8.1439142227172850,38.5806694030761700,51,103,99,79,79,13557,2146958893,2147515017,2147292114,2147511332,2147090386,2146924333,2147716489,2147122578,3434,-2,8,49734
1346637819,5807,1014.0999755859375000,183.6031951904297000,479.8955993652344000,8.1519002914428710,38.6074218750000000,51,100,100,81,78,13553,2146960521,2147515785,2147293385,2147516370,2147090441,2146929965,2147719515,2147119606,5,-1,8,15153
1346641419,5804,1011.3300170898438000,184.0668029785156200,480.0580139160156000,8.1468811035156250,38.5788002014160160,53,103,99,78,80,13554,2146960612,2147512740,2147291510,2147516489,2147091739,2146928000,2147714797,2147120832,3336,-2,8,38396
1346645019,5806,1014.4899902343750000,185.7171936035156200,480.4421081542969000,8.1350145339965820,38.4748191833496100,53,107,98,78,79,13551,2146957632,2147515008,2147288832,2147517037,2147092955,2146930176,2147715273,2147120667,3382,-2,8,23977
1346648619,5804,1013.0999755859375000,184.2169036865234400,480.1054992675781000,8.1454162597656250,38.5690383911132800,53,106,99,79,79,13553,2146962605,2147518436,2147291510,2147514962,2147094262,2146929033,2147718610,2147119186,3454,-2,8,25021
1346652219,5804,1012.7800292968750000,183.7346038818359400,480.7919006347656000,8.1242046356201170,38.6130790710449200,52,111,99,80,79,13551,2146960850,2147519771,2147291446,2147517083,2147090669,2146924150,2147715044,2147120146,2837,-2,8,63872
1346655819,5806,1019.0200195312500000,185.2281036376953000,480.0863952636719000,8.1460046768188480,38.5012016296386700,53,103,100,78,80,13550,2146960347,2147517659,2147290934,2147515940,2147090761,2146926957,2147719945,2147120018,173,-1,8,927
1346659419,5809,1015.1799926757812000,184.2014007568359400,480.6731872558594000,8.1278743743896480,38.5797615051269500,53,101,100,77,79,13547,2146959561,2147514651,2147290377,2147515602,2147091410,2146928292,2147717010,2147118710,77,-1,8,34320
1346663019,5807,1014.3300170898438000,184.4705047607422000,480.2247009277344000,8.1417331695556640,38.5549316406250000,53,101,99,79,79,13547,2146960758,2147515254,2147291062,2147518354,2147092891,2146926902,2147719588,2147118720,126,-2,8,30652
1346666619,5803,1011.3599853515625000,184.4299011230468800,481.5158996582031000,8.1018333435058600,38.5789604187011700,53,103,99,79,80,13548,2146959122,2147518656,2147291986,2147515172,2147093211,2146926866,2147716443,2147117878,3132,-2,8,34765
1346670219,5806,1010.4899902343750000,185.9252929687500000,482.7286987304687500,8.0643472671508790,38.5005607604980500,52,106,98,78,79,13545,2146961398,2147515200,2147289636,2147516178,2147090102,2146924105,2147717860,2147119158,239,-2,8,63461
1346673819,5806,1014.5900268554688000,186.4730987548828000,481.7398071289062500,8.0949125289917000,38.4472885131835940,52,103,135,79,79,13520,2146963126,2147516745,2147294720,2147514203,2147092507,2146927314,2147715337,2147119808,3551,-2,8,35817
1346677419,5804,1014.8900146484375000,185.8032989501953000,480.4721069335937500,8.1340875625610350,38.4699897766113300,53,104,100,79,79,13543,2146956059,2147516224,2147290304,2147515346,2147094537,2146925312,2147717540,2147122541,3487,-2,8,40831
1346679355,5806,1013.2999877929688000,185.5892028808593800,482.3403930664062500,8.0763492584228520,38.5167999267578100,53,100,100,79,80,13547,2146957778,2147515492,2147290395,2147517229,2147090980,2146926674,2147716553,2147120228,3388,-2,8,40103
